Hartford, CT

3:39 AM EDT on March 30, 2017 (GMT -0400)
Hartford-brainard

Weather History for KHFD - December, 2013

Change the Weather History Date:

Thursday, December 12, 2013

  Actual Average Record
Temperature  
Mean Temperature 20 °F -  
Max Temperature 26 °F 40 °F 64 °F (1931)
Min Temperature 15 °F 24 °F 2 °F (1988)
Degree Days  
Heating Degree Days 44    
Moisture  
Dew Point 8 °F    
Average Humidity 54    
Maximum Humidity 74    
Minimum Humidity 37    
Precipitation  
Precipitation 0.00 in - - ()
Sea Level Pressure  
Sea Level Pressure 30.24 in    
Wind  
Wind Speed 6 mph (WNW)    
Max Wind Speed 13 mph    
Max Gust Speed 21 mph    
Visibility 10 miles    
Events      
Averages and records for this station are not official NWS values.
T = Trace of Precipitation, MM = Missing Value Source: NWS Daily Summary

Daily Weather History Graph

Daily Weather History Graph

Search for Another Location

Airport or City:

Trip Planner

Search our weather history database for the weather conditions in past years. The results will help you decide how hot, cold, wet, or windy it might be!

Date:

Astronomy

Dec. 12, 2013 Rise Set
Actual Time 7:08 AM EST 4:20 PM EST
Civil Twilight 6:37 AM EST 4:51 PM EST
Nautical Twilight 6:02 AM EST 5:26 PM EST
Astronomical Twilight 5:28 AM EST 6:00 PM EST
Moon 1:28 PM EST (12/12) 2:25 AM EST (12/12)
Length of Visible Light 10h 14m
Length of Day
9h 11m
Waxing Gibbous, 80% of the Moon is Illuminated
Dec 12
Waxing Gibbous
Dec 17
Full
Dec 25
Last Quarter
Jan 1
New
Jan 7
First Quarter

Hourly Weather History & Observations

Time (EST) Temp. Windchill Dew Point Humidity Pressure Visibility Wind Dir Wind Speed Gust Speed Precip Events Conditions
12:53 AM 26.1 °F 17.6 °F 15.1 °F 63% 30.20 in 10.0 mi NW 8.1 mph - N/A   Clear
1:53 AM 26.1 °F 19.4 °F 12.9 °F 58% 30.21 in 10.0 mi WNW 5.8 mph - N/A   Clear
2:53 AM 25.0 °F 20.7 °F 10.9 °F 55% 30.22 in 10.0 mi WNW 3.5 mph - N/A   Clear
3:53 AM 24.1 °F 18.2 °F 12.0 °F 60% 30.23 in 10.0 mi NW 4.6 mph - N/A   Clear
4:53 AM 23.0 °F - 12.0 °F 63% 30.25 in 10.0 mi Calm Calm - N/A   Clear
5:53 AM 21.9 °F 13.4 °F 10.0 °F 60% 30.26 in 10.0 mi NW 6.9 mph - N/A   Clear
6:53 AM 21.0 °F 11.4 °F 9.0 °F 60% 30.29 in 10.0 mi NW 8.1 mph - N/A   Clear
7:53 AM 21.0 °F 13.4 °F 9.0 °F 60% 30.31 in 10.0 mi NNW 5.8 mph - N/A   Clear
8:53 AM 21.9 °F 11.0 °F 7.0 °F 53% 30.32 in 10.0 mi NW 10.4 mph - N/A   Clear
9:53 AM 24.1 °F 17.0 °F 6.1 °F 46% 30.33 in 10.0 mi Variable 5.8 mph - N/A   Clear
10:53 AM 25.0 °F 13.6 °F 5.0 °F 43% 30.31 in 10.0 mi NW 12.7 mph 17.3 mph N/A   Partly Cloudy
11:53 AM 25.0 °F 14.2 °F 3.9 °F 41% 30.27 in 10.0 mi WNW 11.5 mph - N/A   Partly Cloudy
12:53 PM 26.1 °F 15.6 °F 3.0 °F 37% 30.25 in 10.0 mi WNW 11.5 mph - N/A   Partly Cloudy
1:53 PM 25.0 °F 13.6 °F 3.0 °F 39% 30.25 in 10.0 mi West 12.7 mph 20.7 mph N/A   Mostly Cloudy
2:53 PM 24.1 °F 17.0 °F 3.9 °F 42% 30.24 in 10.0 mi NW 5.8 mph - N/A   Clear
3:53 PM 24.1 °F 16.0 °F 3.9 °F 42% 30.24 in 10.0 mi WNW 6.9 mph - N/A   Partly Cloudy
4:53 PM 23.0 °F - 5.0 °F 46% 30.23 in 10.0 mi Calm Calm - N/A   Clear
5:53 PM 21.0 °F 16.2 °F 7.0 °F 55% 30.23 in 10.0 mi South 3.5 mph - N/A   Scattered Clouds
6:53 PM 21.0 °F - 7.0 °F 55% 30.23 in 10.0 mi Calm Calm - N/A   Clear
7:53 PM 15.1 °F 9.4 °F 8.1 °F 74% 30.22 in 10.0 mi SSE 3.5 mph - N/A   Clear
8:53 PM 16.0 °F 8.8 °F 9.0 °F 74% 30.19 in 10.0 mi SSE 4.6 mph - N/A   Clear
9:53 PM 16.0 °F 8.8 °F 8.1 °F 71% 30.17 in 10.0 mi SSE 4.6 mph - N/A   Clear
10:53 PM 21.0 °F 11.4 °F 7.0 °F 55% 30.14 in 10.0 mi SW 8.1 mph - N/A   Clear
11:53 PM 19.9 °F 11.1 °F 6.1 °F 55% 30.12 in 10.0 mi WSW 6.9 mph - N/A   Clear